Location: Unspecified
(49.8670°N, 0.0000°E)
Time: 10:27:38
(UTC+00:00)

Vanguard 1 - Pass Details

Date: 20 June 2019
Orbit: 653 x 3830 km, 34.3° (Epoch: 20 July)

Event Time Altitude Azimuth Distance (km) Brightness Sun altitude
Rises 02:43:22 0° 221° (SW) 7,417 - -8.4°
Exits shadow 02:48:54 - 214° (SW) 6,177 13.4 -7.8°
Reaches altitude 10° 02:49:58 10° 212° (SSW) 5,935 13.4 -7.7°
Maximum altitude 03:02:27 27° 165° (SSE) 3,570 12.6 -6.5°
Drops below altitude 10° 03:10:36 10° 113° (ESE) 3,798 13.3 -5.6°
Sets 03:13:42 0° 100° (E) 4,403 13.9 -5.2°
